Peachtree City, GA

7:10 AM EST on November 21, 2019 (GMT -0500)
Peachtree City-Falcon

Weather History for KFFC - October, 2019

Change the Weather History Date:

Sunday, October 13, 2019

  Actual Average Record
Temperature  
Mean Temperature 67 °F 62 °F  
Max Temperature 73 °F 75 °F 86 °F (2014)
Min Temperature 61 °F 49 °F 33 °F (2000)
Degree Days  
Heating Degree Days 0 4  
Month to date heating degree days 0 37  
Since 1 July heating degree days 0 50  
Cooling Degree Days 2 1  
Month to date cooling degree days 143 27  
Year to date cooling degree days 2451 1635  
Growing Degree Days 17 (Base 50)    
Moisture  
Dew Point 63 °F    
Average Humidity 84    
Maximum Humidity 93    
Minimum Humidity 68    
Precipitation  
Precipitation 0.05 in 0.11 in 2.68 in (2002)
Month to date precipitation 0.06 1.66  
Year to date precipitation 34.43 40.23  
Snow  
Snow 0.00 in - - ()
Month to date snowfall 0.0  
Since 1 July snowfall 0.0  
Since 1 September snowfall 0.0  
Snow Depth 0.00 in    
Sea Level Pressure  
Sea Level Pressure 30.06 in    
Wind  
Wind Speed 2 mph ()    
Max Wind Speed 14 mph    
Max Gust Speed 19 mph    
Visibility 9.8 miles    
Events Rain    
T = Trace of Precipitation, MM = Missing Value Source: Averaged Metar Reports

Daily Weather History Graph

Daily Weather History Graph

Search for Another Location

Airport or City:

Astronomy

Oct. 13, 2019 Rise Set
Actual Time 7:41 AM EDT 7:07 PM EDT
Civil Twilight 7:16 AM EDT 7:32 PM EDT
Nautical Twilight 6:47 AM EDT 8:01 PM EDT
Astronomical Twilight 6:18 AM EDT 8:29 PM EDT
Moon 7:26 PM EDT (10/13) 7:18 AM EDT (10/13)
Length of Visible Light 12h 16m
Length of Day
11h 26m
Full, 100% of the Moon is Illuminated
Oct 13
Full
Oct 13
Full
Oct 21
Last Quarter
Oct 27
New
Nov 4
First Quarter

Hourly Weather History & Observations

Time (EDT) Temp. Dew Point Humidity Pressure Visibility Wind Dir Wind Speed Gust Speed Precip Events Conditions
12:53 AM 66.9 °F 59.0 °F 76% 30.03 in 10.0 mi Calm Calm - 0.00 in   Overcast
1:53 AM 66.9 °F 60.1 °F 79% 30.01 in 10.0 mi Calm Calm - N/A   Overcast
2:53 AM 66.0 °F 61.0 °F 84% 30.01 in 10.0 mi Calm Calm - N/A   Mostly Cloudy
3:53 AM 64.0 °F 61.0 °F 90% 30.00 in 10.0 mi Calm Calm - 0.00 in   Clear
4:53 AM 63.0 °F 61.0 °F 93% 30.01 in 10.0 mi Calm Calm - 0.00 in   Mostly Cloudy
5:53 AM 64.0 °F 61.0 °F 90% 30.01 in 10.0 mi Calm Calm - N/A   Overcast
6:53 AM 64.9 °F 61.0 °F 87% 30.02 in 10.0 mi Calm Calm - N/A   Overcast
7:53 AM 64.9 °F 61.0 °F 87% 30.04 in 10.0 mi Calm Calm - N/A   Overcast
8:53 AM 66.0 °F 62.1 °F 87% 30.06 in 10.0 mi WNW 3.5 mph - N/A   Overcast
9:20 AM 66.9 °F 61.0 °F 81% 30.08 in 10.0 mi Calm Calm - N/A   Overcast
9:27 AM 66.9 °F 62.1 °F 84% 30.08 in 10.0 mi Calm Calm - N/A   Overcast
9:53 AM 68.0 °F 62.1 °F 81% 30.07 in 10.0 mi WNW 5.8 mph - N/A   Overcast
10:53 AM 69.1 °F 62.1 °F 78% 30.09 in 10.0 mi WNW 6.9 mph - N/A   Overcast
11:53 AM 70.0 °F 62.1 °F 76% 30.06 in 10.0 mi Calm Calm - N/A   Overcast
12:02 PM 71.1 °F 62.1 °F 73% 30.08 in 10.0 mi Calm Calm - N/A   Overcast
12:53 PM 73.0 °F 63.0 °F 71% 30.06 in 10.0 mi NW 8.1 mph - N/A   Mostly Cloudy
1:53 PM 73.0 °F 64.9 °F 76% 30.04 in 10.0 mi NW 6.9 mph - N/A   Overcast
2:53 PM 71.1 °F 64.0 °F 78% 30.05 in 8.0 mi North 5.8 mph - N/A   Overcast
3:04 PM 70.0 °F 64.9 °F 84% 30.06 in 7.0 mi NW 6.9 mph - 0.00 in   Overcast
3:28 PM 71.1 °F 64.9 °F 81% 30.04 in 10.0 mi North 3.5 mph - 0.00 in   Overcast
3:48 PM 69.8 °F 64.4 °F 83% 30.06 in 10.0 mi NW 11.5 mph - 0.00 in   Overcast
3:53 PM 70.0 °F 64.0 °F 81% 30.05 in 10.0 mi NNW 11.5 mph - 0.00 in   Overcast
4:26 PM 68.0 °F 63.0 °F 84% 30.07 in 10.0 mi NNW 5.8 mph - N/A   Overcast
4:53 PM 68.0 °F 63.0 °F 84% 30.06 in 10.0 mi NW 4.6 mph - N/A   Overcast
5:22 PM 68.0 °F 63.0 °F 84% 30.06 in 10.0 mi Variable 3.5 mph - N/A   Overcast
5:34 PM 69.1 °F 63.0 °F 81% 30.06 in 10.0 mi WNW 3.5 mph - 0.00 in Rain Light Rain
5:53 PM 69.1 °F 63.0 °F 81% 30.04 in 10.0 mi Calm Calm - 0.00 in   Mostly Cloudy
6:53 PM 68.0 °F 64.0 °F 87% 30.04 in 10.0 mi SE 3.5 mph - N/A   Mostly Cloudy
7:53 PM 66.9 °F 64.9 °F 93% 30.06 in 10.0 mi Calm Calm - 0.02 in Rain Light Rain
8:53 PM 66.9 °F 64.9 °F 93% 30.07 in 7.0 mi Variable 3.5 mph - 0.01 in Rain Light Rain
9:26 PM 66.9 °F 64.9 °F 93% 30.11 in 10.0 mi WNW 5.8 mph - 0.02 in Rain Light Rain
9:39 PM 66.0 °F 63.0 °F 90% 30.10 in 10.0 mi WNW 6.9 mph - 0.02 in Rain Light Rain
9:49 PM 66.2 °F 62.6 °F 88% 30.09 in 10.0 mi West 4.6 mph - 0.02 in Rain Light Rain
9:53 PM 66.0 °F 63.0 °F 90% 30.08 in 10.0 mi WSW 4.6 mph - 0.02 in Rain Light Rain
10:53 PM 64.9 °F 62.1 °F 90% 30.07 in 10.0 mi NNW 9.2 mph - 0.00 in Rain Light Rain
11:53 PM 63.0 °F 59.0 °F 87% 30.09 in 10.0 mi NW 9.2 mph - 0.00 in   Mostly Cloudy